Location: Cisewo
(53.3833°N, 14.9000°E)
Time: 11:49:47
(UTC+00:00)

Cosmos 1174 - Pass Details

Date: 18 April 2021
Orbit: 370 x 1145 km, 66.1° (Epoch: 14 May)

Event Time Altitude Azimuth Distance (km) Brightness Sun altitude
Rises 22:15:43 0° 317° (NW) 3,212 8.7 -24.8°
Reaches altitude 10° 22:18:22 10° 317° (NW) 2,145 7.6 -24.9°
Enters shadow 22:22:36 66° 306° (NW) 646 4.2 -25.0°
